When you browse on this site, cookies collect data to enhance your experience and personalize the content and advertising you see.
Visit our Privacy Policy to learn more. By continuing to use the site, you agree to this use of cookies and data.
  • în România
  • Lista ţărilor
  • Pe 7 zile
  • Temperatura apei
  • Meteo pe hartă
  • Widget-uri
  • user-avatar
    Intrare

    Meteo pe oră la Pathiu

    Astăzi, 3 Iunie, Miercuri

    Timp Temperatura Precipitaţii Vânt Presiune Umiditate
    00:00 +28°C° 0 mm 2 m/s 757 mmHg 94%
    01:00 +27°C° 0 mm 2 m/s 757 mmHg 95%
    02:00 +27°C° 0 mm 2 m/s 756 mmHg 95%
    03:00 +27°C° 0 mm 2 m/s 755 mmHg 95%
    04:00 +27°C° 0 mm 1 m/s 755 mmHg 95%
    05:00 +27°C° 0 mm 1 m/s 755 mmHg 94%
    06:00 +27°C° 0 mm 1 m/s 756 mmHg 93%
    07:00 +28°C° 0 mm 1 m/s 756 mmHg 92%
    08:00 +30°C° 0.1 mm 1 m/s 756 mmHg 85%
    09:00 +31°C° 0.1 mm 2 m/s 756 mmHg 77%
    10:00 +34°C° 0.1 mm 2 m/s 757 mmHg 69%
    11:00 +32°C° 0.7 mm 2 m/s 756 mmHg 72%
    12:00 +32°C° 0.7 mm 2 m/s 756 mmHg 76%
    13:00 +31°C° 0.7 mm 2 m/s 756 mmHg 80%
    14:00 +31°C° 0.6 mm 2 m/s 755 mmHg 79%
    15:00 +31°C° 0.6 mm 2 m/s 755 mmHg 79%
    16:00 +31°C° 0.6 mm 2 m/s 754 mmHg 79%
    17:00 +30°C° 0.1 mm 2 m/s 754 mmHg 82%
    18:00 +30°C° 0.1 mm 2 m/s 755 mmHg 86%
    19:00 +29°C° 0.1 mm 3 m/s 755 mmHg 89%
    20:00 +28°C° 0.1 mm 2 m/s 756 mmHg 90%
    21:00 +28°C° 0.1 mm 2 m/s 756 mmHg 92%
    22:00 +28°C° 0.1 mm 2 m/s 757 mmHg 93%
    23:00 +28°C° 0 mm 2 m/s 756 mmHg 94%

    Mâine, 4 Iunie, Joi

    Timp Temperatura Precipitaţii Vânt Presiune Umiditate
    00:00 +27°C° 0 mm 3 m/s 756 mmHg 94%
    01:00 +27°C° 0 mm 3 m/s 756 mmHg 94%
    02:00 +27°C° 0 mm 2 m/s 755 mmHg 95%
    03:00 +27°C° 0 mm 2 m/s 755 mmHg 95%
    04:00 +27°C° 0 mm 2 m/s 755 mmHg 96%
    05:00 +27°C° 0.1 mm 2 m/s 755 mmHg 95%
    06:00 +28°C° 0.1 mm 2 m/s 755 mmHg 94%
    07:00 +28°C° 0.1 mm 2 m/s 756 mmHg 92%
    08:00 +30°C° 0.1 mm 2 m/s 756 mmHg 85%
    09:00 +31°C° 0.1 mm 2 m/s 756 mmHg 77%
    10:00 +34°C° 0.1 mm 2 m/s 757 mmHg 69%
    11:00 +35°C° 1.3 mm 2 m/s 756 mmHg 66%
    12:00 +35°C° 1.3 mm 2 m/s 756 mmHg 63%
    13:00 +36°C° 1.3 mm 3 m/s 755 mmHg 60%
    14:00 +36°C° 0.5 mm 2 m/s 755 mmHg 61%
    15:00 +35°C° 0.5 mm 2 m/s 754 mmHg 62%
    16:00 +35°C° 0.5 mm 2 m/s 754 mmHg 63%
    17:00 +33°C° 0.2 mm 3 m/s 754 mmHg 70%
    18:00 +31°C° 0.2 mm 3 m/s 754 mmHg 76%
    19:00 +29°C° 0.2 mm 3 m/s 755 mmHg 82%
    20:00 +29°C° 0.1 mm 3 m/s 755 mmHg 85%
    21:00 +29°C° 0.1 mm 3 m/s 756 mmHg 87%
    22:00 +28°C° 0.1 mm 3 m/s 757 mmHg 90%
    23:00 +28°C° 0.2 mm 3 m/s 756 mmHg 90%

    Poimâine, 5 Iunie, Vineri

    Timp Temperatura Precipitaţii Vânt Presiune Umiditate
    00:00 +28°C° 0.2 mm 3 m/s 756 mmHg 91%
    01:00 +28°C° 0.2 mm 3 m/s 756 mmHg 91%
    02:00 +28°C° 0.1 mm 3 m/s 755 mmHg 91%
    03:00 +28°C° 0.1 mm 3 m/s 755 mmHg 92%
    04:00 +27°C° 0.1 mm 3 m/s 755 mmHg 92%
    05:00 +28°C° 0 mm 2 m/s 755 mmHg 91%
    06:00 +28°C° 0 mm 2 m/s 755 mmHg 90%
    07:00 +28°C° 0 mm 2 m/s 755 mmHg 90%
    08:00 +30°C° 0 mm 2 m/s 756 mmHg 81%
    09:00 +32°C° 0 mm 2 m/s 756 mmHg 72%
    10:00 +34°C° 0 mm 3 m/s 756 mmHg 64%
    11:00 +35°C° 0.1 mm 3 m/s 756 mmHg 62%
    12:00 +35°C° 0.1 mm 3 m/s 756 mmHg 60%
    13:00 +36°C° 0.1 mm 3 m/s 755 mmHg 58%
    14:00 +35°C° 1.9 mm 3 m/s 755 mmHg 62%
    15:00 +34°C° 1.9 mm 4 m/s 755 mmHg 66%
    16:00 +33°C° 1.9 mm 4 m/s 754 mmHg 70%
    17:00 +32°C° 0 mm 4 m/s 754 mmHg 74%
    18:00 +30°C° 0 mm 4 m/s 755 mmHg 79%
    19:00 +29°C° 0 mm 4 m/s 755 mmHg 83%
    20:00 +28°C° 0 mm 4 m/s 755 mmHg 84%
    21:00 +28°C° 0 mm 4 m/s 756 mmHg 86%
    22:00 +28°C° 0 mm 4 m/s 757 mmHg 87%
    23:00 +28°C° 0 mm 3 m/s 756 mmHg 88%

    6 Iunie, Sâmbătă

    Timp Temperatura Precipitaţii Vânt Presiune Umiditate
    00:00 +28°C° 0 mm 3 m/s 756 mmHg 89%
    01:00 +28°C° 0 mm 3 m/s 755 mmHg 89%
    02:00 +28°C° 0 mm 3 m/s 755 mmHg 90%
    03:00 +27°C° 0 mm 3 m/s 755 mmHg 90%
    04:00 +27°C° 0 mm 4 m/s 754 mmHg 91%
    05:00 +28°C° 0 mm 4 m/s 755 mmHg 90%
    06:00 +28°C° 0 mm 4 m/s 755 mmHg 89%
    07:00 +28°C° 0 mm 4 m/s 755 mmHg 89%
    08:00 +29°C° 0 mm 4 m/s 756 mmHg 83%
    09:00 +30°C° 0 mm 4 m/s 756 mmHg 76%
    10:00 +33°C° 0 mm 4 m/s 756 mmHg 70%
    11:00 +33°C° 0.5 mm 4 m/s 756 mmHg 71%
    12:00 +33°C° 0.5 mm 5 m/s 756 mmHg 71%
    13:00 +33°C° 0.5 mm 5 m/s 755 mmHg 72%
    14:00 +32°C° 0.4 mm 5 m/s 755 mmHg 74%
    15:00 +32°C° 0.4 mm 5 m/s 754 mmHg 76%
    16:00 +30°C° 0.4 mm 5 m/s 754 mmHg 78%
    17:00 +29°C° 0.1 mm 5 m/s 754 mmHg 81%
    18:00 +28°C° 0.1 mm 4 m/s 755 mmHg 84%
    19:00 +28°C° 0.1 mm 4 m/s 755 mmHg 88%
    20:00 +27°C° 0 mm 4 m/s 755 mmHg 89%
    21:00 +27°C° 0 mm 3 m/s 756 mmHg 90%
    22:00 +27°C° 0 mm 3 m/s 757 mmHg 91%
    23:00 +27°C° 0 mm 3 m/s 756 mmHg 90%

    7 Iunie, Duminică

    Timp Temperatura Precipitaţii Vânt Presiune Umiditate
    00:00 +27°C° 0 mm 4 m/s 756 mmHg 90%
    01:00 +27°C° 0 mm 4 m/s 755 mmHg 89%
    02:00 +27°C° 0.1 mm 4 m/s 755 mmHg 90%
    03:00 +27°C° 0.1 mm 4 m/s 755 mmHg 91%
    04:00 +27°C° 0.1 mm 3 m/s 754 mmHg 92%
    05:00 +27°C° 0.1 mm 3 m/s 754 mmHg 92%
    06:00 +27°C° 0.1 mm 3 m/s 755 mmHg 92%
    07:00 +27°C° 0.1 mm 3 m/s 755 mmHg 92%
    08:00 +28°C° 0.1 mm 4 m/s 755 mmHg 89%
    09:00 +29°C° 0.1 mm 4 m/s 755 mmHg 85%
    10:00 +29°C° 0.1 mm 4 m/s 756 mmHg 81%
    11:00 +30°C° 0.1 mm 4 m/s 755 mmHg 80%
    12:00 +30°C° 0.1 mm 5 m/s 755 mmHg 79%
    13:00 +30°C° 0.1 mm 5 m/s 754 mmHg 78%
    14:00 +29°C° 0.4 mm 5 m/s 754 mmHg 80%
    15:00 +29°C° 0.4 mm 5 m/s 753 mmHg 82%
    16:00 +29°C° 0.4 mm 5 m/s 753 mmHg 84%
    17:00 +28°C° 0.1 mm 5 m/s 753 mmHg 86%
    18:00 +28°C° 0.1 mm 4 m/s 754 mmHg 89%
    19:00 +27°C° 0.1 mm 3 m/s 754 mmHg 92%
    20:00 +27°C° 0.1 mm 3 m/s 754 mmHg 92%
    21:00 +27°C° 0.1 mm 3 m/s 755 mmHg 92%
    22:00 +27°C° 0.1 mm 3 m/s 755 mmHg 92%
    23:00 +27°C° 0.4 mm 3 m/s 755 mmHg 92%

    8 Iunie, Luni

    Timp Temperatura Precipitaţii Vânt Presiune Umiditate
    00:00 +27°C° 0.4 mm 4 m/s 755 mmHg 93%
    01:00 +27°C° 0.4 mm 5 m/s 754 mmHg 93%
    02:00 +27°C° 0.5 mm 4 m/s 754 mmHg 94%
    03:00 +27°C° 0.5 mm 4 m/s 754 mmHg 95%
    04:00 +26°C° 0.5 mm 3 m/s 753 mmHg 96%
    05:00 +27°C° 0 mm 3 m/s 754 mmHg 95%
    06:00 +27°C° 0 mm 3 m/s 754 mmHg 95%
    07:00 +27°C° 0 mm 3 m/s 754 mmHg 94%
    08:00 +28°C° 0.1 mm 4 m/s 754 mmHg 91%
    09:00 +28°C° 0.1 mm 4 m/s 755 mmHg 88%
    10:00 +29°C° 0.1 mm 4 m/s 755 mmHg 85%
    11:00 +30°C° 0.1 mm 5 m/s 755 mmHg 82%
    12:00 +30°C° 0.1 mm 5 m/s 754 mmHg 78%
    13:00 +32°C° 0.1 mm 5 m/s 754 mmHg 74%
    14:00 +30°C° 0.9 mm 5 m/s 754 mmHg 78%
    15:00 +29°C° 0.9 mm 5 m/s 753 mmHg 83%
    16:00 +29°C° 0.9 mm 5 m/s 753 mmHg 87%
    17:00 +28°C° 0.5 mm 4 m/s 753 mmHg 89%
    18:00 +28°C° 0.5 mm 4 m/s 753 mmHg 92%
    19:00 +27°C° 0.5 mm 3 m/s 754 mmHg 94%
    20:00 +27°C° 0.2 mm 3 m/s 754 mmHg 94%
    21:00 +27°C° 0.2 mm 3 m/s 754 mmHg 94%
    22:00 +27°C° 0.2 mm 2 m/s 755 mmHg 95%
    23:00 +27°C° 0.3 mm 2 m/s 755 mmHg 95%
    Arată mai mult